Location: Brachbach
(49.1847°N, 9.7240°E)
Time: 22:04:04
(UTC+00:00)

Cosmos 2219 Rocket - Pass Details

Date: 16 August 2024
Orbit: 826 x 846 km, 71.0° (Epoch: 09 September)

Event Time Altitude Azimuth Distance (km) Brightness Sun altitude
Exits shadow 23:57:20 70° 262° (W) 900 2.1 -27.1°
Maximum altitude 23:57:45 74° 300° (WNW) 883 2.2 -27.1°
Drops below altitude 10° 00:03:28 10° 26° (NNE) 2,481 5.6 -26.9°
Sets 00:05:56 0° 28° (NNE) 3,420 6.5 -26.8°
